Location: Passau
(48.5830°N, 13.4830°E)
Time: 08:54:06
(UTC+01:00)

NOAA 19 - Pass Details

Date: 08 December 2021
Orbit: 841 x 860 km, 99.2° (Epoch: 26 January)

Event Time Altitude Azimuth Distance (km) Brightness Sun altitude
Rises 18:46:03 0° 167° (SSE) 3,384 8.3 -24.6°
Reaches altitude 10° 18:48:24 10° 169° (S) 2,455 7.6 -25.0°
Maximum altitude 18:53:51 77° 255° (WSW) 872 5.3 -25.9°
Drops below altitude 10° 18:59:22 10° 342° (NNW) 2,482 7.8 -26.8°
Sets 19:01:45 0° 344° (NNW) 3,425 8.5 -27.2°
